Hourly Data Report for September 19, 2017

All times are specified in Local Standard Time (LST). Add 1 hour to adjust for Daylight Saving Time where and when it is observed.

CORAL HARBOUR A
NUNAVUT

64°11'36.000" N
83°21'34.000" W
62.20 m
2301002
71915
YZS

Download Data

Hourly Data (September 2017)
Hourly Data Report for September 19, 2017
Temp Definition
°C
Dew Point Temp Definition
°C
Rel Hum Definition
%
Wind Dir Definition
10's deg

Wind Spd Definition
km/h
Visibility Definition
km
Stn Press Definition
kPa
Hmdx Definition


Wind Chill Definition


Weather Definition


TIME
00:00 Legend Double Dagger 1.0 -0.4 91 6 23 24.1 100.54     LegendNANA
01:00 Legend Double Dagger 0.9 -0.5 90 5 28 24.1 100.48     Mainly Clear
02:00 Legend Double Dagger 1.3 -0.9 85 6 27 24.1 100.46     LegendNANA
03:00 Legend Double Dagger 1.6 -1.2 82 5 25 24.1 100.44     LegendNANA
04:00 Legend Double Dagger 0.1 -1.9 86 4 22 24.1 100.43     Mainly Clear
05:00 Legend Double Dagger 0.6 -1.9 84 3 24 24.1 100.43     LegendNANA
06:00 Legend Double Dagger 0.7 -2.4 79 1 25 24.1 100.44     LegendNANA
07:00 Legend Double Dagger 2.3 -2.4 71 4 26 24.1 100.47     Mostly Cloudy
08:00 Legend Double Dagger 2.2 -1.5 77 33 13 24.1 100.49     LegendNANA
09:00 Legend Double Dagger 4.2 -0.1 74 5 18 24.1 100.51     LegendNANA
10:00 Legend Double Dagger 6.1 0.8 69 6 22 24.1 100.52     Mostly Cloudy
11:00 Legend Double Dagger 7.4 -0.4 58 3 28 24.1 100.54     LegendNANA
12:00 Legend Double Dagger 8.0 -0.7 54 3 25 24.1 100.57     LegendNANA
13:00 Legend Double Dagger 8.2 2.2 66 2 24 24.1 100.57     Mainly Clear
14:00 Legend Double Dagger 8.6 3.0 68 2 27 24.1 100.60     LegendNANA
15:00 Legend Double Dagger 8.1 3.5 72 3 29 24.1 100.63     LegendNANA
16:00 Legend Double Dagger 7.4 3.5 76 2 27 24.1 100.69     Mainly Clear
17:00 Legend Double Dagger 6.7 3.2 78 3 31 24.1 100.75     LegendNANA
18:00 Legend Double Dagger 5.8 2.6 80 5 21 24.1 100.80     LegendNANA
19:00 Legend Double Dagger 4.3 2.1 86 2 21 24.1 100.85     Mainly Clear
20:00 Legend Double Dagger 3.2 1.6 89 5 20 24.1 100.93     LegendNANA
21:00 Legend Double Dagger 2.0 0.5 90 4 19 24.1 100.99     LegendNANA
22:00 Legend Double Dagger 0.3 -0.7 93 4 12 24.1 101.06     Mainly Clear
23:00 Legend Double Dagger 1.3 0.0 91 2 15 24.1 101.12     LegendNANA

Notes on Data Quality.

Legend

  • E = Estimated
  • M = Missing
  • NA = Not Available
  • ‡ = Partner data that is not subject to review by the National Climate Archives
Date modified: